Location: Songkhla
(7.2000°N, 100.6000°E)
Time: 17:32:18
(UTC+07:00)

ISS - Visible Passes

Search period start: 28 June 2017 00:00
Search period end: 08 July 2017 00:00
Orbit: 401 x 408 km, 51.6° (Epoch: 28 June)

Date Brightness Start Highest point End Pass type
(mag) Time Alt. Az. Time Alt. Az. Time Alt. Az.
28 Jun -2.0 04:40:51 21° SSE 04:41:52 25° SE 04:44:36 10° ENE visible
29 Jun -2.4 05:23:59 14° W 05:25:59 24° NW 05:28:40 10° N visible
30 Jun -3.4 04:34:20 55° N 04:34:20 55° N 04:37:01 10° NNE visible
01 Jul -0.2 03:44:37 10° ENE 03:44:37 10° ENE 03:44:38 10° ENE visible
02 Jul -1.1 04:27:29 12° NNW 04:27:29 12° NNW 04:27:59 10° N visible
